GFSFLT2_925_thetae_093.txt.gz
Theta_e
339 336 336 338 338 338 336 339 337 337 330 327 324 325 328 331 333 332 332 331 328 327 326 327 328 326 325 322 322 322 321 320
338 337 335 335 337 338 337 336 334 329 326 326 324 324 324 332 331 331 332 330 327 325 325 327 326 324 321 320 321 321 320 319
335 335 335 334 334 334 335 333 331 329 325 324 325 324 328 329 330 331 331 329 325 324 325 326 323 321 320 321 320 320 319 318
334 333 334 334 333 334 333 332 331 329 328 327 325 326 330 330 331 329 329 327 323 322 323 324 322 319 320 320 320 320 319 318
333 332 333 336 336 333 331 331 331 330 328 328 327 328 327 328 328 328 327 324 321 319 321 321 320 319 320 320 320 319 318 317
332 329 329 331 334 332 330 330 330 329 329 328 327 326 330 330 328 327 324 320 318 318 318 319 317 319 320 320 319 319 317 317
330 328 329 328 332 332 331 330 328 328 328 329 326 327 327 325 326 325 320 317 314 316 315 314 317 319 320 320 319 318 316 317
328 327 328 328 329 330 330 330 330 328 328 327 326 327 327 327 326 321 316 313 311 315 313 314 318 319 320 320 320 318 316 316
327 326 326 325 327 327 328 328 330 329 329 327 326 327 328 326 324 317 312 308 316 318 313 316 316 319 319 319 319 318 316 316
326 325 325 326 325 326 326 328 328 330 329 328 327 327 328 326 323 316 310 312 319 318 316 316 317 318 318 319 319 318 317 314
326 325 324 324 325 325 325 327 328 330 329 328 327 327 328 326 321 318 311 317 320 319 319 318 318 318 318 318 319 318 318 317
325 323 323 323 323 323 323 323 324 326 327 328 328 327 327 324 322 317 317 319 321 319 318 317 318 318 317 318 318 319 319 318
324 323 322 323 322 321 321 321 322 323 324 325 327 327 326 323 322 321 320 322 320 318 317 316 317 317 317 317 318 318 319 318
323 323 322 322 322 320 319 319 318 319 319 319 322 321 323 322 321 323 321 320 318 316 316 316 316 316 316 315 313 316 318 318
323 322 323 322 321 319 317 317 315 315 316 316 316 318 321 323 323 322 321 321 318 316 316 316 315 316 316 315 315 315 313 316
323 322 323 322 320 318 317 316 316 315 315 315 315 317 320 320 321 320 320 318 317 316 316 316 315 315 315 317 319 321 316 317
323 322 323 321 320 318 316 315 315 315 315 314 315 316 317 317 317 316 314 313 314 314 315 315 315 314 314 315 317 319 320 319
323 323 323 321 319 317 316 315 314 314 314 315 314 314 314 315 314 314 314 313 314 313 313 315 315 314 313 315 317 318 319 319
323 323 324 321 319 317 316 316 315 315 314 315 314 314 315 314 314 313 313 313 315 315 313 316 318 319 319 319 319 320 320 320
323 322 324 322 320 318 316 317 316 315 314 316 314 314 314 315 316 316 316 314 315 316 315 318 320 320 319 320 322 322 322 322

GFSFLT2_925_thetae_096.txt.gz
Theta_e
339 339 339 340 337 338 339 341 341 339 335 332 332 328 328 326 326 332 332 331 330 328 326 326 328 325 324 323 323 322 321 321
337 335 333 336 338 338 337 338 340 339 336 335 328 327 326 327 328 327 331 331 327 326 325 327 327 326 324 322 322 321 320 320
336 335 334 334 334 337 336 338 339 337 330 326 324 326 329 327 326 330 330 329 327 325 327 327 326 320 321 322 321 320 319 319
334 335 334 333 332 333 334 335 332 330 326 325 324 324 324 328 328 330 328 328 327 326 327 326 320 320 321 320 321 319 318 318
334 332 333 333 333 332 332 333 331 329 325 324 325 325 327 327 328 328 328 327 325 325 328 324 319 320 320 320 319 318 317 318
333 332 332 334 335 332 331 332 331 329 328 326 325 326 330 330 330 329 328 326 324 325 325 324 318 319 320 320 319 318 317 318
332 331 332 332 333 332 331 331 331 330 328 328 327 327 327 327 326 327 328 325 321 323 324 323 318 319 320 319 319 318 317 318
331 329 327 331 330 332 331 330 330 329 329 328 328 327 328 329 326 325 327 322 319 320 322 321 318 319 320 319 318 317 317 317
329 328 327 327 329 331 332 331 329 328 329 328 327 327 327 326 325 326 324 316 316 318 319 318 318 319 320 318 318 317 317 317
328 326 325 325 328 329 329 329 330 330 328 328 327 327 326 326 326 325 317 313 315 315 316 317 317 319 319 318 317 316 316 317
326 325 325 325 326 326 327 327 328 329 329 328 327 327 327 322 324 319 311 311 315 313 314 317 317 318 319 318 318 317 316 316
326 325 325 324 324 325 325 326 328 328 329 328 327 327 327 326 322 315 309 315 317 313 315 316 318 318 319 318 318 317 316 314
325 324 324 323 323 324 322 323 325 328 328 328 327 327 327 324 322 314 311 317 317 315 314 317 318 318 317 317 318 318 317 317
323 323 323 323 322 321 321 321 321 323 325 327 328 327 325 324 321 315 314 319 318 317 317 317 317 317 317 317 314 316 317 317
323 323 322 322 321 321 320 319 319 319 321 322 324 327 327 323 322 316 318 319 318 318 317 317 317 317 317 316 314 315 314 316
323 323 322 320 321 320 319 317 316 316 317 318 321 324 325 323 320 317 319 319 317 317 316 316 316 315 316 315 315 315 314 314
323 322 322 321 321 320 318 317 317 316 315 316 318 319 320 320 319 319 319 318 317 316 316 315 315 315 315 316 319 319 318 316
321 322 320 320 320 319 318 317 316 315 315 316 317 316 316 316 317 318 319 319 317 316 316 316 315 315 315 316 318 319 318 318
321 322 319 320 320 319 317 316 316 315 315 315 316 317 318 319 319 319 319 318 317 316 315 315 315 315 314 314 314 317 319 319
322 322 320 320 319 318 316 315 315 315 315 315 315 316 317 318 317 317 318 317 316 315 314 312 313 314 316 315 314 315 318 319

GFSFLT2_925_thetae_099.txt.gz
Theta_e
341 340 339 337 340 340 341 341 340 339 335 331 331 331 330 328 327 328 332 331 331 331 330 329 328 327 326 325 325 326 326 325
341 340 339 338 337 339 340 341 340 339 335 332 330 330 330 328 327 330 331 330 330 330 329 328 326 324 324 323 323 324 324 323
338 336 334 336 337 337 337 341 340 339 337 332 331 333 330 327 326 327 330 325 329 328 328 328 324 323 324 323 322 322 322 321
336 334 333 332 333 337 337 335 338 338 337 336 334 327 326 327 327 327 325 328 329 326 327 328 325 321 322 322 321 320 320 320
334 334 333 333 332 333 332 333 336 337 336 332 327 325 325 328 327 329 330 329 327 325 327 326 321 321 321 321 320 319 319 318
333 333 333 333 332 332 332 331 333 332 330 326 324 324 324 327 327 327 324 327 326 326 326 322 319 321 321 320 319 319 318 318
333 333 332 333 332 332 332 331 331 332 329 325 324 324 327 328 328 327 326 327 326 326 324 319 320 320 320 320 318 318 318 318
333 332 331 333 333 333 331 330 331 330 329 327 325 326 326 329 328 328 327 327 326 326 324 318 319 320 319 319 318 317 317 318
332 332 331 332 332 332 331 330 330 333 330 329 328 327 327 327 328 326 326 326 325 325 324 318 319 319 319 318 318 317 317 318
332 331 328 330 330 331 331 330 330 330 330 328 328 327 326 327 327 325 324 325 323 323 322 317 319 319 318 318 318 317 317 318
330 329 327 325 328 330 330 330 330 329 328 328 327 327 327 325 323 320 322 322 320 321 319 317 318 318 318 318 317 317 317 317
329 328 326 325 327 328 328 328 329 330 329 328 327 327 327 326 323 320 323 319 317 318 318 317 319 318 317 317 317 317 317 317
327 326 325 325 325 325 325 325 326 328 327 328 327 327 327 326 324 324 318 315 316 316 316 316 318 318 317 316 316 316 316 316
325 325 324 325 324 323 323 323 324 325 327 327 327 327 326 325 323 323 314 314 315 314 315 316 316 317 317 316 315 315 316 316
323 323 325 323 323 323 322 321 321 322 323 325 327 326 325 325 321 321 314 315 316 313 316 317 316 317 317 317 314 317 315 316
323 322 324 322 321 321 320 318 318 319 321 321 324 327 327 326 322 319 312 317 316 314 315 317 317 316 317 317 316 316 316 313
322 322 322 321 320 320 320 319 318 319 319 320 321 322 323 324 323 317 313 318 317 316 316 317 317 316 316 316 317 315 315 314
322 321 321 320 319 320 320 319 317 317 317 317 318 320 322 323 320 318 315 317 317 316 316 317 317 316 316 316 317 318 318 318
321 321 320 318 319 320 319 318 318 317 316 316 317 317 319 320 319 317 316 317 317 317 318 317 317 314 314 316 316 316 318 319
321 321 320 318 319 319 318 318 317 316 316 316 316 316 316 317 318 317 316 316 317 317 316 315 314 313 315 315 315 316 318 317

GFSFLT2_925_thetae_102.txt.gz
Theta_e
339 338 338 339 340 340 340 341 339 336 335 336 336 335 333 331 331 332 328 326 323 329 333 333 333 332 332 330 329 328 328 328
340 339 337 338 340 340 340 340 339 338 335 334 334 333 332 330 332 328 329 331 332 331 332 332 331 330 329 328 327 327 327 326
340 339 338 337 337 339 341 340 339 339 337 333 331 331 331 330 328 328 330 329 330 330 331 330 329 328 327 326 326 326 326 325
340 339 339 337 336 336 338 339 338 339 338 334 331 330 330 331 329 328 327 328 327 329 329 329 327 325 324 324 324 324 323 323
339 337 335 334 335 334 336 337 337 337 338 335 332 330 331 331 326 326 328 328 327 326 328 327 324 324 323 322 322 322 322 321
336 335 333 332 331 334 336 336 333 334 337 336 333 333 330 326 327 327 326 328 326 326 326 324 323 324 322 321 321 320 320 320
334 334 333 332 332 333 334 332 332 331 332 334 334 330 325 324 326 327 328 328 327 326 326 323 322 322 322 321 320 320 319 319
330 332 333 333 332 332 332 331 331 331 330 330 329 325 324 325 326 328 327 326 326 325 325 322 321 321 321 320 319 319 318 319
329 331 332 333 332 332 332 331 332 328 329 330 327 324 324 326 327 328 325 326 325 324 323 320 320 320 320 319 318 318 318 318
329 331 332 332 331 332 332 331 332 330 329 328 328 325 325 326 328 327 324 325 325 323 319 319 319 320 319 318 317 317 318 318
329 330 332 331 332 332 332 331 332 332 327 329 330 327 327 327 327 327 326 324 324 320 317 319 318 319 318 318 317 317 317 318
329 329 332 331 331 330 330 330 329 331 329 330 328 327 327 327 326 324 323 321 321 319 317 318 319 318 317 317 317 317 317 317
328 328 330 329 326 326 328 328 329 330 331 328 328 327 327 326 325 321 319 319 320 319 317 317 317 317 316 316 316 317 317 317
325 326 328 326 324 324 325 325 324 326 326 328 328 327 327 326 324 321 322 319 319 318 317 316 317 317 317 316 316 315 316 317
325 325 326 324 323 323 321 321 322 324 325 327 327 327 326 326 323 320 320 319 318 317 316 317 317 317 317 317 316 317 315 316
323 324 324 323 324 321 321 320 320 320 322 324 326 326 325 325 323 320 319 315 313 315 316 317 317 316 317 318 318 317 316 314
323 324 322 323 322 322 321 319 319 318 319 321 323 324 324 324 325 322 320 314 315 314 315 316 317 317 317 315 315 317 316 313
322 322 321 320 322 320 319 318 318 318 318 318 320 320 321 324 322 321 320 314 316 314 315 316 316 317 317 317 315 316 316 316
321 321 320 319 319 318 319 319 319 318 317 317 318 319 320 322 323 319 317 316 316 314 315 316 316 317 317 316 315 314 316 316
322 321 320 319 319 318 319 319 318 317 317 316 317 318 319 320 322 319 316 316 315 313 314 316 317 316 317 315 313 314 316 314

GFSFLT2_925_thetae_108.txt.gz
Theta_e
344 343 341 339 338 336 335 334 335 338 339 340 339 337 336 335 335 334 334 329 330 332 336 335 335 334 333 333 332 332 333 333
343 344 343 344 342 340 338 337 336 337 340 342 340 338 338 336 335 334 333 330 333 330 330 331 333 334 333 332 332 332 332 331
342 343 343 344 344 343 339 339 337 336 338 341 337 337 337 336 335 335 331 330 330 330 330 333 331 332 332 332 331 332 331 331
340 341 342 342 341 343 342 342 340 340 339 339 338 337 337 336 335 334 329 330 330 329 331 332 331 331 330 331 331 331 330 329
340 341 342 341 340 340 342 343 341 340 341 340 339 338 337 335 334 333 330 332 330 331 331 333 330 329 329 329 330 330 329 328
340 341 341 341 339 339 339 339 341 339 339 338 339 338 338 336 334 333 332 331 332 332 331 330 329 328 327 328 328 328 326 326
340 340 341 340 340 338 337 339 340 340 337 338 337 336 335 335 333 332 332 332 333 330 330 329 328 327 327 328 327 326 325 324
339 339 340 340 340 339 338 337 336 338 337 337 337 337 335 335 334 332 330 332 332 331 329 328 327 326 326 327 326 325 325 323
337 340 340 340 339 337 336 335 335 337 335 335 337 334 335 334 334 331 332 330 329 330 328 327 326 325 326 325 325 325 324 322
333 335 338 339 338 336 333 333 333 332 334 334 334 335 333 333 332 331 330 328 327 328 326 324 324 324 324 324 324 324 323 321
328 333 334 337 338 336 333 332 333 334 333 330 331 333 333 332 331 329 327 326 327 326 324 324 323 323 324 324 324 323 322 320
323 328 332 334 337 335 333 332 332 333 333 332 332 331 330 331 330 329 327 326 325 323 321 321 321 321 322 324 323 322 322 320
321 325 330 332 335 333 331 330 331 332 331 331 331 330 330 329 328 328 326 324 322 320 320 320 320 320 321 323 322 321 321 320
325 327 330 332 332 331 331 330 330 330 330 331 329 329 328 327 327 326 326 321 321 320 321 320 319 319 321 320 321 320 321 320
326 327 330 331 331 329 331 330 330 329 329 328 327 328 326 327 326 326 325 323 320 319 320 319 318 320 320 321 321 322 321 320
326 327 329 330 331 329 331 330 329 329 328 328 327 326 326 326 326 324 326 323 320 319 319 319 319 320 320 321 320 320 322 322
327 327 328 328 330 329 330 331 331 330 329 328 325 326 325 328 326 325 324 322 322 319 319 319 318 319 320 319 321 320 320 320
328 328 327 326 328 329 330 332 331 328 326 325 324 325 325 326 325 324 322 320 319 318 319 318 318 319 319 318 320 321 320 320
327 328 326 325 326 327 330 331 329 328 327 325 323 324 325 324 323 321 320 319 318 318 319 319 319 318 318 319 319 320 319 318
325 327 325 324 324 325 327 328 329 327 325 323 321 323 324 324 322 321 321 319 318 318 319 319 319 318 318 319 319 319 318 316

GFSFLT2_925_thetae_111.txt.gz
Theta_e
347 344 338 336 335 335 335 336 338 341 344 343 339 338 337 337 336 335 335 335 335 331 333 336 336 335 333 333 331 332 332 334
346 346 344 343 340 336 335 335 336 338 342 342 339 337 337 336 335 335 334 335 332 332 333 331 332 327 331 332 331 332 333 333
343 344 344 345 344 342 337 337 335 336 340 342 340 337 338 337 336 335 334 332 329 331 329 333 331 329 330 330 330 331 332 332
340 342 343 343 342 344 342 342 341 340 341 342 342 340 339 338 337 335 335 333 330 330 330 330 329 330 330 329 329 332 331 330
337 341 343 342 340 341 341 341 342 341 340 340 340 340 338 338 336 336 334 334 332 331 331 331 332 331 331 329 325 326 331 330
338 339 342 343 340 339 339 343 342 341 342 341 341 339 339 338 337 336 335 333 332 332 332 333 331 330 330 327 326 327 329 329
337 339 342 343 342 339 339 343 342 341 342 340 341 340 339 338 336 336 334 333 332 333 333 333 331 329 328 327 327 326 327 327
337 340 343 343 342 341 339 340 342 341 340 340 340 339 339 337 337 336 336 334 334 333 332 332 330 329 328 327 325 324 326 326
336 340 344 343 342 341 340 338 339 341 340 339 340 340 339 338 337 335 334 334 333 333 332 331 330 328 327 326 325 327 325 325
330 337 341 342 342 341 341 338 338 338 338 338 339 339 338 337 336 336 333 333 332 333 331 330 329 327 327 325 326 326 325 324
328 332 337 341 342 342 341 337 337 337 336 336 337 336 335 335 335 334 333 332 331 330 330 329 328 327 326 323 325 325 324 323
325 328 333 338 339 341 340 338 336 336 335 335 335 335 335 334 333 332 332 331 329 327 327 326 326 325 325 325 324 324 323 320
322 323 326 334 336 338 340 336 335 335 336 335 334 333 333 331 331 332 330 328 326 326 325 324 323 324 325 324 324 323 323 321
325 325 325 328 333 335 339 334 333 333 334 335 334 333 331 330 331 331 329 327 325 325 323 321 321 323 324 323 323 322 322 321
326 326 327 328 332 336 335 333 332 332 332 334 334 332 331 331 331 329 328 327 325 323 321 321 321 322 322 322 323 324 322 321
328 327 327 329 332 334 333 333 332 331 332 333 333 332 331 330 329 328 327 325 323 321 321 321 320 321 320 320 320 321 323 323
327 329 329 329 331 334 332 332 332 333 333 332 331 331 329 329 328 327 326 324 323 322 321 320 319 319 320 321 320 321 321 322
325 328 329 329 330 332 333 331 334 333 333 333 330 330 330 328 327 326 325 325 323 322 321 320 318 318 319 320 321 321 321 322
323 324 328 329 330 330 332 331 334 334 334 333 331 329 329 327 326 325 324 323 323 321 320 319 319 319 320 320 321 321 321 320
322 324 325 329 329 327 330 330 332 334 332 330 329 327 328 326 325 324 324 323 322 321 320 319 319 319 320 319 320 321 320 320

GFSFLT2_925_thetae_114.txt.gz
Theta_e
336 333 334 335 334 334 335 335 338 340 341 343 343 339 338 337 339 337 336 338 335 335 333 333 335 335 334 333 331 331 332 334
343 339 336 335 335 334 334 334 335 338 341 344 343 340 339 337 336 335 336 335 334 336 330 332 333 333 333 332 329 330 331 334
348 346 343 340 337 335 335 334 334 336 339 341 342 341 339 338 336 335 334 334 334 332 331 332 331 331 327 330 329 329 332 330
346 345 345 345 344 343 336 335 335 335 336 339 338 340 340 339 337 335 335 334 333 329 331 329 331 330 326 329 327 330 331 330
342 344 345 345 342 343 343 342 340 339 340 341 341 340 339 339 338 337 335 335 331 331 329 330 332 329 329 329 326 327 331 330
338 342 343 343 343 343 343 342 342 341 340 339 342 341 340 339 338 337 336 335 334 332 330 331 332 331 329 330 327 327 325 328
338 339 343 344 342 340 341 342 341 342 340 340 339 342 341 339 338 338 336 336 334 332 332 332 331 331 332 331 328 326 326 324
338 338 341 343 344 342 339 345 343 341 341 341 342 341 340 338 338 337 336 336 334 333 332 332 332 331 331 331 327 326 325 326
338 340 341 344 345 342 343 341 344 340 342 341 341 341 341 339 338 337 336 335 333 332 331 332 332 330 329 329 327 326 324 327
336 341 342 343 344 344 342 342 341 343 341 338 339 340 340 339 337 336 336 334 333 333 333 331 331 330 329 328 327 325 324 326
327 339 344 343 343 344 343 341 340 340 342 340 338 339 339 338 338 337 335 334 333 332 331 331 330 329 329 328 327 324 325 325
327 333 341 344 344 341 344 343 340 339 338 339 339 337 338 338 336 336 335 334 332 332 331 330 330 329 328 327 326 324 325 324
323 326 336 341 344 344 344 344 340 338 338 338 336 335 335 335 334 335 333 332 331 330 329 328 328 327 326 326 325 325 325 324
324 324 324 333 340 340 342 342 341 338 337 337 336 335 336 333 334 332 331 330 328 326 327 325 325 326 325 324 324 324 324 323
325 325 326 327 326 336 337 340 338 335 335 334 337 336 334 333 332 331 330 329 328 327 325 324 323 324 325 323 323 323 322 322
326 327 328 328 328 331 338 336 335 334 333 333 335 335 333 331 330 331 329 327 328 326 325 324 323 323 323 322 321 322 322 322
326 327 329 329 329 331 337 336 335 333 332 332 332 333 332 331 331 331 329 327 326 326 324 323 322 322 322 321 320 321 321 321
324 324 325 328 329 330 336 335 334 332 332 332 331 333 332 331 330 328 326 326 326 326 324 322 321 322 322 320 320 321 321 321
323 323 323 325 329 329 334 336 333 333 333 334 332 331 331 331 330 328 326 326 325 324 323 322 321 320 321 320 320 321 321 320
320 319 320 323 323 329 331 332 333 332 333 335 332 330 330 330 329 328 326 325 324 323 322 321 320 320 319 320 321 321 320 321

GFSFLT2_925_thetae_117.txt.gz
Theta_e
330 332 332 332 332 332 334 336 338 339 340 340 340 338 337 337 339 339 337 336 335 335 334 332 332 333 334 333 333 332 333 332
331 333 332 332 332 332 332 334 336 335 339 341 340 339 338 337 337 338 336 336 335 335 333 330 331 334 334 333 332 331 331 331
332 333 332 332 332 333 333 334 335 335 339 339 341 340 338 338 337 336 336 335 335 334 331 330 333 332 331 332 331 331 330 330
341 334 333 333 334 333 333 333 334 335 337 339 340 339 338 338 336 336 335 335 334 333 330 331 331 331 328 327 329 330 331 329
345 341 336 335 336 335 334 334 334 334 335 336 338 339 338 339 337 336 335 334 334 333 330 331 329 331 331 326 329 327 330 330
344 344 343 341 344 343 339 335 334 334 334 336 338 337 338 340 338 338 335 335 334 331 330 329 330 330 329 327 328 326 330 328
341 342 344 343 342 342 341 339 337 337 337 338 340 341 338 338 338 338 337 336 334 333 331 330 330 331 330 329 329 328 327 326
340 341 342 343 341 342 341 342 341 340 339 338 338 341 341 340 338 337 337 336 335 334 333 331 331 331 330 329 330 329 327 325
338 340 341 342 341 341 341 342 342 340 341 339 338 338 342 340 339 338 337 336 335 334 333 332 332 330 331 330 330 329 327 325
338 339 341 342 342 340 342 341 343 342 342 341 340 340 340 340 338 337 337 336 335 334 333 332 332 331 331 330 329 328 326 325
336 339 341 342 343 342 340 342 343 344 341 340 340 341 342 341 339 337 336 336 334 333 332 331 331 331 330 329 328 328 326 325
328 339 340 341 343 344 343 340 341 342 342 341 339 339 339 340 339 337 336 335 334 333 332 332 331 330 329 328 327 327 326 324
327 343 342 343 344 344 344 343 341 340 340 340 340 338 337 337 339 336 336 335 333 332 332 331 330 329 328 327 327 326 326 324
328 342 344 343 343 342 342 344 343 342 340 339 338 339 337 335 336 335 335 335 332 331 330 329 329 328 326 325 324 324 325 325
325 326 338 344 342 342 342 341 342 340 339 338 337 337 336 334 334 333 333 333 331 329 328 327 326 326 326 324 323 324 323 324
326 327 327 328 331 340 341 341 339 340 338 337 336 336 336 334 333 332 333 332 330 328 326 326 324 323 325 324 322 322 323 323
326 326 327 327 327 328 335 337 337 338 337 336 335 334 335 336 334 332 332 331 329 327 326 325 324 323 323 323 321 322 322 321
319 320 321 322 323 326 331 336 336 335 334 333 333 333 333 335 332 331 330 329 328 327 325 325 325 323 323 323 322 321 321 321
316 316 316 317 319 321 322 331 335 334 333 332 331 330 330 333 332 331 330 329 327 326 325 325 324 323 323 322 321 321 321 321
314 314 313 313 315 317 319 321 332 334 333 332 331 331 331 331 332 331 330 329 326 325 324 325 323 322 322 322 321 321 321 320

GFSFLT2_925_thetae_123.txt.gz
Theta_e
332 333 334 334 334 333 333 334 336 337 337 336 335 335 336 336 337 338 338 337 336 333 330 329 333 333 332 333 334 332 331 332
332 334 335 334 333 333 334 335 337 338 338 337 336 336 336 337 337 338 337 335 334 334 332 330 333 334 332 332 333 332 331 331
333 334 334 334 334 334 334 336 337 338 338 338 337 336 337 337 338 338 337 336 335 334 333 330 331 333 334 332 332 332 331 330
334 333 334 334 334 335 336 337 338 338 338 339 338 337 336 336 336 338 338 336 335 334 332 330 330 332 333 333 331 330 330 329
335 334 331 333 334 338 337 339 339 338 337 338 338 338 337 337 337 338 338 337 336 335 334 332 330 332 332 331 331 330 329 330
333 333 333 333 333 337 339 340 338 337 336 336 336 339 338 337 337 337 338 337 336 335 334 332 329 331 331 329 330 328 329 329
331 331 331 332 333 332 334 336 336 333 335 335 333 337 337 337 336 336 336 336 336 335 333 332 330 331 331 330 328 327 328 329
333 330 330 331 331 331 330 330 330 332 333 333 334 333 335 336 336 337 336 335 335 334 333 332 330 330 329 330 330 327 328 329
339 334 330 331 331 331 331 331 331 331 331 332 333 334 334 335 336 336 336 336 335 334 334 333 331 329 329 330 329 328 328 328
341 340 336 332 332 333 332 331 331 331 332 332 332 332 334 334 335 337 337 336 335 334 334 332 331 330 330 330 330 329 329 328
340 342 340 337 334 333 333 334 334 333 333 332 332 333 334 337 337 337 337 337 337 335 334 332 332 331 330 330 330 329 326 327
339 340 341 341 340 338 338 339 339 338 337 335 336 334 335 337 339 339 338 337 336 335 334 333 333 331 330 329 329 328 326 325
338 338 340 341 341 340 339 339 339 339 340 340 340 337 338 337 337 339 340 338 337 336 334 333 332 331 330 329 329 328 327 327
331 337 338 340 340 340 339 339 339 339 340 340 340 340 340 338 337 338 339 338 337 336 335 331 330 331 329 327 326 326 326 326
317 327 334 338 340 340 339 339 339 340 340 340 340 341 340 340 339 339 340 337 336 335 334 332 329 329 329 327 324 324 323 325
332 333 336 338 340 339 339 337 337 339 339 341 341 340 340 340 340 340 339 339 337 335 334 333 331 328 328 329 325 323 323 323
320 325 327 333 339 339 337 335 336 335 338 338 339 340 340 339 339 339 338 337 335 334 333 332 331 328 327 326 326 323 322 321
311 311 311 314 318 319 320 327 323 329 332 335 338 337 337 338 339 338 336 336 335 334 332 333 331 329 327 326 325 324 322 321
308 308 307 308 310 311 312 313 314 317 320 329 333 335 335 336 337 337 336 335 335 333 331 332 330 328 327 325 325 324 323 322
304 304 304 305 306 307 308 309 310 311 314 317 326 332 333 335 335 335 335 334 334 332 330 330 330 328 326 325 324 322 323 323

GFSFLT2_925_thetae_126.txt.gz
Theta_e
338 338 336 336 336 337 337 337 336 335 334 334 334 334 335 337 338 338 337 336 332 332 332 332 333 334 334 335 333 333 331 331
337 337 336 335 336 337 337 336 336 336 335 334 334 335 335 336 337 338 337 336 333 330 330 332 333 333 333 334 334 331 330 331
337 336 336 336 336 336 335 335 336 337 336 335 335 336 336 336 337 337 336 335 334 333 330 330 333 333 332 331 332 332 330 331
335 335 336 339 339 335 336 338 339 338 338 337 336 336 336 336 337 337 336 336 334 334 333 330 331 333 333 331 331 331 331 330
334 335 338 339 339 341 340 340 341 339 339 338 337 336 337 337 337 338 338 337 335 334 333 331 330 330 333 333 331 330 330 329
334 337 338 338 337 343 341 343 345 341 338 338 338 337 337 337 337 337 338 337 336 335 333 332 330 330 331 331 330 330 329 329
333 335 337 339 336 338 339 340 341 342 340 338 338 338 337 337 336 336 337 337 336 335 334 333 331 330 331 330 329 329 328 328
333 333 333 335 335 335 336 337 338 337 338 337 338 338 338 337 337 336 336 337 336 335 334 333 332 330 330 330 329 328 327 328
331 333 334 334 334 333 335 335 335 335 334 336 336 336 340 338 336 336 336 336 335 335 335 334 332 330 330 329 329 329 328 328
331 332 332 332 332 332 330 330 333 335 337 336 336 335 335 335 335 336 336 336 335 335 335 334 332 331 330 329 329 329 328 327
339 334 332 331 331 333 332 331 331 331 332 332 333 334 333 334 335 335 336 336 335 335 334 334 333 331 330 329 330 330 329 328
339 339 336 332 333 334 333 333 331 331 331 331 331 332 332 334 335 334 335 336 336 335 334 333 333 331 329 329 329 329 329 326
337 339 340 338 335 335 335 334 334 333 331 331 330 331 331 333 334 336 336 336 336 336 335 333 331 332 330 329 329 328 329 328
336 337 339 340 338 336 335 335 335 335 335 335 336 333 334 333 334 336 338 338 337 336 335 332 331 331 329 328 327 326 327 326
332 335 337 339 339 339 338 337 337 337 337 338 338 338 339 337 337 337 337 338 338 336 336 334 330 330 331 328 324 324 323 323
313 329 334 337 339 339 338 337 336 337 337 337 339 340 340 339 338 338 337 337 338 336 335 334 332 329 329 330 325 323 320 321
323 328 334 336 338 339 337 337 337 336 337 337 335 336 338 338 339 340 338 338 338 338 335 333 332 331 329 328 326 323 323 322
311 317 317 326 334 334 335 334 334 334 333 331 329 326 335 336 339 339 339 339 338 337 336 334 333 332 330 329 328 326 322 321
305 306 306 308 311 312 314 314 317 323 330 329 325 328 334 336 336 337 337 338 337 335 335 334 333 331 330 328 327 326 325 323
302 302 302 303 304 305 306 307 308 310 313 317 326 329 331 333 334 334 335 335 336 334 333 333 332 330 329 328 327 326 325 324

GFSFLT2_925_thetae_129.txt.gz
Theta_e
340 339 339 339 339 338 336 335 334 333 333 333 333 335 337 339 338 337 336 333 331 331 332 332 333 333 333 334 333 332 333 334
340 341 340 339 339 338 338 336 335 334 333 333 333 336 337 338 339 338 336 333 331 331 331 332 333 333 333 333 333 331 333 333
340 340 340 339 338 338 338 337 336 335 334 334 334 337 338 339 339 338 336 334 331 329 331 332 333 332 332 333 333 333 330 332
339 339 340 341 339 339 339 339 339 337 336 336 336 336 338 340 339 338 336 336 332 329 329 332 333 333 332 331 332 332 331 330
338 338 339 339 338 341 340 340 340 340 339 338 339 337 337 337 338 340 338 336 337 334 331 333 332 333 333 331 331 331 330 330
337 338 338 337 338 339 341 340 340 339 339 337 337 338 338 339 340 340 340 339 339 338 336 334 330 330 332 332 332 331 330 329
335 336 337 337 338 338 339 339 341 342 342 338 337 338 337 337 339 339 340 339 338 336 336 333 331 330 330 332 331 330 329 329
334 334 335 336 337 338 338 339 338 339 340 344 343 338 337 337 337 338 338 338 337 337 335 334 333 331 330 330 330 330 329 328
332 333 336 335 336 337 336 337 339 337 338 343 344 341 337 337 337 337 338 338 337 336 335 334 333 331 331 330 330 329 329 328
331 332 333 337 336 335 335 336 335 337 337 338 341 341 340 337 339 337 336 336 337 336 334 334 333 332 332 331 330 329 329 329
333 332 333 334 334 334 334 334 334 334 334 334 338 340 340 337 338 337 335 336 336 335 335 334 332 331 331 330 329 329 329 329
336 333 332 333 335 334 334 333 334 333 334 333 335 337 338 339 337 334 335 335 335 335 334 333 333 332 332 330 329 329 329 329
339 336 333 333 334 334 334 333 333 333 333 333 334 334 335 337 334 334 334 335 335 335 334 332 331 332 330 329 329 330 329 329
338 339 336 333 332 333 333 333 333 333 333 334 333 333 333 333 333 334 334 334 334 334 334 332 331 331 330 329 332 329 327 326
335 338 339 337 334 334 334 335 334 334 333 333 333 333 333 333 333 332 333 334 335 334 334 333 331 331 332 332 332 332 327 326
328 336 339 339 338 337 336 336 335 335 334 334 334 334 334 334 334 334 333 335 335 335 335 334 333 331 330 331 328 327 329 329
325 333 336 339 340 339 337 338 338 338 336 334 335 338 336 335 335 334 334 335 335 335 335 334 334 333 331 330 328 324 323 326
317 318 318 329 334 337 338 337 336 335 337 335 334 335 334 333 328 324 325 333 335 335 335 334 334 333 331 330 329 327 325 326
309 311 309 313 320 323 326 327 330 330 332 332 332 329 327 329 327 325 324 330 334 334 334 333 333 332 331 330 330 329 328 326
303 304 304 304 305 306 309 313 317 319 320 322 324 327 329 326 325 324 326 332 332 334 335 333 332 332 332 331 330 329 327 327

GFSFLT2_925_thetae_132.txt.gz
Theta_e
348 345 340 338 337 336 334 334 336 338 338 337 335 335 335 336 337 337 336 334 331 332 332 332 333 332 332 333 332 334 336 335
348 347 345 344 340 337 335 334 334 335 335 335 335 335 336 337 337 337 334 332 331 332 332 332 332 333 333 333 332 331 335 335
347 347 346 346 345 341 336 335 334 335 335 336 336 340 341 340 341 338 334 332 332 332 332 332 333 333 333 333 332 333 333 334
345 346 345 345 344 344 342 341 340 340 341 341 340 341 342 342 343 339 335 332 332 332 333 333 333 336 335 334 333 334 334 333
343 344 344 344 342 343 342 342 341 341 342 342 341 342 343 342 342 341 340 335 335 333 334 335 335 336 336 334 334 335 334 333
341 341 343 343 340 341 343 342 342 342 342 343 342 343 343 342 342 341 340 338 337 335 335 335 337 337 336 336 336 334 333 333
339 339 341 341 341 339 341 341 342 341 342 344 343 342 343 342 342 341 341 339 339 338 337 337 337 336 335 336 335 335 334 332
336 338 339 340 339 340 340 341 341 341 341 343 342 342 342 343 342 342 340 340 339 339 338 337 336 336 336 335 335 334 334 333
331 337 338 338 338 339 339 339 340 340 341 341 342 342 342 342 341 341 341 341 339 339 338 337 336 336 336 335 335 334 334 334
329 334 336 337 337 338 338 338 340 340 340 341 339 341 341 341 341 340 340 340 341 339 338 337 336 336 335 335 334 334 334 334
321 332 335 336 336 336 338 338 338 339 340 339 341 340 340 340 339 339 340 340 340 339 338 337 336 336 335 335 335 334 333 333
315 328 335 336 335 336 337 337 338 338 338 339 339 340 338 338 338 338 339 339 339 339 338 338 337 336 335 335 335 333 332 332
312 320 335 337 336 336 335 336 336 336 336 336 337 337 339 336 338 337 338 338 338 338 337 338 337 336 336 334 334 333 332 331
310 316 333 336 337 337 336 335 334 334 334 334 335 335 335 335 337 337 337 337 338 336 338 336 335 335 335 334 335 332 331 332
310 313 328 335 336 336 335 335 334 334 334 335 336 336 336 333 335 337 337 337 337 335 336 336 334 333 336 333 336 336 332 331
309 312 324 335 336 336 335 336 334 333 334 334 335 336 336 337 337 336 336 335 335 334 334 335 335 334 333 335 334 333 334 334
309 312 320 333 337 336 336 335 334 333 334 335 336 335 336 336 337 337 335 335 334 334 332 334 336 335 334 334 335 332 330 331
315 315 320 331 338 338 337 336 337 338 339 339 337 336 335 336 336 335 335 329 325 324 328 333 334 335 335 333 334 333 332 331
317 314 312 319 330 334 339 340 340 340 340 337 336 335 333 333 332 333 327 329 328 326 326 325 334 334 335 334 334 333 332 331
305 306 306 307 310 312 317 321 327 327 329 334 334 334 335 335 333 331 329 328 326 324 324 325 332 333 334 335 335 334 333 332

GFSFLT2_925_thetae_135.txt.gz
Theta_e
351 345 339 335 335 334 335 337 339 340 339 340 339 337 336 336 336 336 336 336 334 331 332 333 333 333 332 332 331 333 336 334
350 347 345 342 339 335 335 337 339 339 341 340 339 337 337 337 337 337 337 337 332 332 332 332 332 332 332 332 330 334 336 333
349 349 347 345 344 340 335 337 339 340 341 340 339 342 341 340 339 340 338 336 332 332 332 332 332 332 332 332 330 333 334 333
348 348 348 347 345 345 341 341 341 343 343 343 342 341 341 342 341 341 337 334 333 333 333 333 333 335 334 332 333 334 333 333
347 347 348 347 345 344 343 342 341 342 342 343 341 341 342 342 342 342 340 335 336 334 334 336 336 337 336 335 334 335 334 332
345 346 347 347 343 342 342 341 342 342 342 343 342 341 342 342 343 342 340 338 337 336 336 336 336 337 337 336 335 335 333 333
335 345 346 346 345 341 340 340 341 341 342 343 343 343 342 342 343 342 340 339 338 337 336 336 336 336 336 336 336 335 335 334
323 340 344 344 344 343 341 341 341 341 342 344 343 343 343 342 343 342 342 341 338 338 336 337 335 336 336 336 335 335 334 333
317 336 342 343 343 342 341 340 341 341 341 342 344 344 343 342 342 342 342 341 339 338 338 338 336 335 335 334 335 334 334 333
314 319 337 342 342 342 340 340 340 341 340 342 344 345 343 342 342 341 342 340 339 339 337 336 336 334 334 335 334 332 333 333
312 313 326 339 341 341 340 340 341 341 341 341 342 342 344 343 342 342 341 342 340 339 338 337 337 336 334 334 334 333 333 334
311 312 314 337 340 340 340 341 341 339 341 340 342 340 342 344 341 342 341 342 341 341 338 338 337 336 335 334 334 335 334 332
312 312 313 323 339 340 340 342 341 339 339 340 340 340 339 342 342 341 339 341 341 338 339 339 337 337 336 335 335 336 335 334
311 312 313 314 337 339 339 340 340 340 340 340 340 341 339 340 339 340 338 340 339 341 338 338 338 337 337 336 336 335 334 334
311 311 312 313 316 338 338 338 339 339 338 338 339 339 339 337 338 340 338 338 339 341 337 337 337 337 337 335 337 336 332 335
315 310 311 312 314 336 338 338 339 337 336 337 337 337 337 336 337 339 339 339 337 339 336 336 336 336 335 336 336 336 336 337
317 312 310 311 313 327 337 338 338 336 335 336 336 338 338 337 336 338 339 340 337 335 334 335 334 334 333 334 336 336 336 336
312 317 310 310 311 323 337 337 339 336 336 337 337 339 338 339 338 338 339 337 334 333 332 329 331 332 333 334 333 334 335 334
303 306 311 314 320 324 336 337 337 337 337 337 339 339 339 339 338 339 338 336 334 329 327 326 325 327 333 334 334 334 333 333
300 302 305 309 309 312 321 330 335 337 338 340 341 339 337 338 339 338 336 335 332 327 326 326 325 328 331 328 334 334 332 333

GFSFLT2_925_thetae_138.txt.gz
Theta_e
351 346 337 336 336 335 336 337 341 342 341 339 338 338 336 337 337 338 339 338 337 334 332 333 333 333 331 330 329 332 335 336
350 347 340 336 337 336 336 337 340 342 341 339 339 338 337 337 337 337 337 337 336 332 332 333 332 331 330 330 328 333 334 336
351 347 346 341 340 337 337 338 340 341 340 340 340 339 337 338 337 337 337 337 334 332 332 332 332 331 330 330 327 332 335 335
350 350 347 345 344 343 337 339 340 341 341 342 341 340 339 342 339 342 337 336 333 332 332 332 331 331 330 329 327 334 334 334
346 350 348 347 346 345 342 342 342 342 344 344 341 341 343 341 341 341 339 336 333 333 333 332 332 336 335 330 328 334 335 332
327 347 349 349 347 347 344 342 342 344 345 345 342 342 343 340 343 341 340 336 335 334 333 333 335 336 337 336 335 335 335 333
315 326 348 350 347 347 346 343 343 343 343 344 343 343 343 343 343 343 341 340 336 336 336 335 336 337 337 335 336 334 334 334
313 315 340 347 348 345 345 344 344 343 344 344 343 343 342 342 343 342 342 340 337 338 336 337 336 336 333 335 333 332 332 334
313 313 316 346 346 345 344 342 344 343 343 344 343 343 342 343 341 343 342 340 339 338 336 337 336 336 334 333 331 335 334 334
313 313 313 328 345 345 344 345 341 343 342 345 345 341 342 343 342 342 343 342 339 339 337 335 335 334 337 334 332 331 332 331
313 314 313 313 330 343 344 343 343 340 343 344 346 344 341 343 343 343 343 342 342 339 338 340 336 335 337 336 334 332 331 330
319 314 313 314 314 338 341 342 342 342 343 341 345 345 343 342 343 341 340 341 342 339 340 340 336 334 334 334 334 334 332 334
312 317 316 313 315 325 338 339 341 340 341 342 344 345 343 342 343 342 341 341 342 341 338 339 337 338 335 335 333 333 333 333
311 310 312 318 313 314 334 337 340 340 341 341 341 344 341 342 345 342 341 341 342 341 340 340 339 338 337 336 334 335 335 334
305 307 310 319 314 313 314 335 336 338 338 341 340 343 342 339 342 343 342 340 341 342 338 337 337 338 336 335 334 333 334 335
300 303 307 311 314 313 314 320 335 336 337 340 342 342 342 340 340 340 341 339 337 341 341 338 336 336 335 335 335 336 333 334
297 299 303 308 311 314 313 315 325 334 337 339 341 341 343 340 339 339 340 339 336 340 341 338 336 335 335 334 334 334 333 332
295 298 299 303 308 313 318 315 316 331 335 337 339 341 341 340 339 337 337 341 341 339 340 337 335 335 334 334 333 333 333 333
294 295 295 301 305 310 315 319 318 322 334 336 337 339 339 339 337 335 337 340 340 338 337 335 334 334 334 333 333 333 333 333
292 293 294 296 303 307 310 314 318 323 332 335 336 337 339 339 337 336 337 339 338 337 334 334 333 332 329 329 330 329 331 332

GFSFLT2_925_thetae_141.txt.gz
Theta_e
349 347 340 336 337 337 339 341 342 342 341 338 336 337 336 336 338 338 338 337 336 334 332 331 332 331 329 329 330 334 336 334
350 348 345 337 336 337 337 338 342 342 341 339 337 338 336 336 337 338 338 337 335 333 331 331 331 330 328 328 331 333 336 334
350 348 345 338 335 335 336 338 340 342 342 340 338 338 337 336 337 337 337 336 335 331 331 331 330 329 328 327 329 332 336 335
351 349 346 340 336 335 335 337 339 342 342 340 339 339 338 336 336 336 336 336 335 331 331 331 330 329 328 326 326 334 334 334
322 348 348 344 338 337 337 337 338 342 342 341 340 340 338 337 337 339 338 337 335 332 332 331 330 330 329 327 328 333 334 333
312 312 340 346 344 342 343 339 337 340 342 341 341 340 341 339 340 338 341 337 334 331 331 330 330 335 335 335 330 334 335 333
314 313 312 329 345 345 345 344 338 337 341 342 342 340 342 341 341 341 339 338 334 332 331 331 330 333 336 337 335 336 334 334
315 316 314 313 321 341 345 345 343 339 339 342 343 341 340 343 341 342 340 339 334 332 332 331 330 335 336 336 334 331 334 333
310 313 316 314 313 339 342 343 343 342 341 340 342 342 339 342 342 343 342 340 337 334 335 335 335 335 337 336 332 331 329 330
305 309 312 314 315 316 329 341 342 342 342 342 342 341 340 343 342 342 342 341 340 337 338 336 337 336 335 333 331 330 331 331
301 305 308 309 312 315 317 325 339 341 340 342 343 342 341 343 341 341 341 342 340 338 339 335 336 336 335 335 334 331 330 331
299 300 303 305 308 312 316 317 330 337 340 340 342 343 342 343 342 341 341 342 341 340 338 337 335 335 337 335 336 334 332 331
297 298 299 302 304 309 312 320 323 337 336 339 340 341 343 342 342 342 341 342 342 341 339 338 338 339 335 334 333 334 333 333
295 296 297 299 303 306 309 314 316 328 335 335 338 340 342 343 342 342 342 342 341 341 340 339 339 337 335 334 332 332 332 332
294 293 296 298 301 304 308 313 313 315 328 336 335 339 340 342 341 342 342 341 340 340 340 338 338 338 337 334 329 330 330 333
292 292 295 296 297 302 306 310 314 313 320 330 333 336 338 339 341 341 342 341 340 340 341 339 337 338 337 336 332 331 329 331
291 292 293 295 296 300 304 309 312 316 318 330 333 334 336 337 341 342 341 341 340 341 341 339 338 337 337 336 335 334 334 329
290 291 291 293 295 298 302 306 309 314 316 323 328 332 334 336 340 340 341 341 339 340 341 340 337 335 335 334 333 333 333 332
290 290 291 292 293 296 300 304 308 311 315 318 322 330 331 335 338 339 340 340 339 339 340 340 339 336 334 333 333 332 332 332
290 290 290 291 292 294 296 302 304 306 309 314 319 324 327 330 332 339 338 340 340 338 337 338 338 337 334 334 333 333 332 332

GFSFLT2_925_thetae_144.txt.gz
Theta_e
347 345 341 338 336 338 340 341 341 340 339 337 336 336 335 333 334 336 337 337 336 334 332 331 332 332 332 331 333 335 332 332
349 348 345 340 336 336 337 340 341 341 340 339 337 337 336 334 335 336 336 336 335 333 331 330 331 330 330 330 332 335 332 333
348 348 346 343 337 336 335 337 340 342 342 340 339 338 337 335 335 335 336 336 334 332 330 330 330 329 328 329 332 335 333 334
332 337 346 343 338 336 335 335 337 340 342 342 340 338 338 336 336 335 336 336 335 332 330 330 329 327 327 327 330 334 335 334
314 321 331 343 342 337 336 335 336 338 341 342 341 339 339 338 337 337 337 336 335 332 330 330 329 328 327 326 327 333 335 334
308 310 314 315 339 341 338 339 336 336 339 342 341 341 340 339 338 337 337 336 335 333 330 330 329 328 327 326 327 332 334 333
302 305 309 312 315 324 339 339 340 336 335 338 341 341 340 340 338 337 337 337 336 333 330 330 329 329 334 334 333 332 334 334
300 302 304 308 311 313 315 337 341 340 337 336 337 340 340 340 339 338 337 337 337 334 330 330 329 329 334 335 336 335 333 331
298 300 300 303 307 309 312 314 330 340 340 337 337 338 340 340 341 340 339 337 338 335 331 330 330 329 333 335 336 335 330 333
297 298 298 299 302 306 308 311 314 326 339 341 339 339 338 340 341 341 340 340 339 336 332 331 331 331 333 335 336 331 331 328
296 295 296 297 298 301 305 308 312 315 329 337 338 339 339 338 340 341 341 341 340 338 333 333 334 335 334 334 335 331 330 329
294 294 294 295 297 299 302 305 308 313 320 328 336 339 339 338 339 340 341 341 340 339 336 335 335 335 336 336 334 334 332 330
291 292 292 293 296 297 299 302 305 309 314 322 331 336 338 339 338 340 341 341 340 340 338 336 336 335 336 335 336 335 335 332
291 291 291 292 294 295 297 301 305 307 312 315 325 327 336 337 338 340 340 341 341 340 338 337 336 335 334 333 330 333 335 333
290 290 291 292 293 295 297 300 303 308 311 313 322 328 335 335 337 338 339 340 340 340 339 338 336 336 335 333 328 332 327 333
290 290 291 291 292 294 295 299 301 305 306 311 313 317 324 329 336 337 339 340 340 340 340 339 337 336 334 335 334 331 329 329
289 290 290 290 291 293 294 297 299 303 306 310 312 314 322 329 331 333 332 333 339 340 339 339 337 336 336 334 332 330 330 324
289 290 290 290 291 291 293 294 296 301 303 306 312 315 318 325 329 334 333 329 337 339 339 339 338 336 336 335 334 332 330 328
289 289 290 290 290 290 292 294 294 297 300 302 305 309 316 319 327 331 332 332 328 336 338 338 337 336 336 335 335 334 334 333
289 289 289 289 290 290 290 292 292 294 297 298 303 308 315 321 323 323 322 324 331 330 336 337 337 336 335 335 333 334 333 333